ANA605 RJTT-RJFO

Flight info

Callsign ANA605
Flight time 1h 18m
Altitude 36000
Route NINOX Y28 MARCO Y45 YANAI BAIEN TFE
Aircraft A20N/M-SDE2E3FGHIRWXY/LB1

Departure

Time 2026-05-06 13:11
Airport Tokyo Haneda International Airport (RJTT)

Arrival

Time 2026-05-06 14:29
Airport Oita Airport (RJFO)
Time Latitude Longitude Altitude Speed Heading
2026-05-06 12:24 35.55050 139.79019 22 ft 0 kts 243°
2026-05-06 12:51 35.55050 139.79020 22 ft 1 kts 243°
2026-05-06 12:51 35.55057 139.79037 22 ft 2 kts 246°
2026-05-06 12:51 35.55064 139.79056 26 ft 2 kts 248°
2026-05-06 12:52 35.55069 139.79075 25 ft 2 kts 254°
2026-05-06 12:52 35.55073 139.79095 25 ft 2 kts 265°
2026-05-06 12:52 35.55073 139.79115 25 ft 2 kts 288°
2026-05-06 12:52 35.55064 139.79132 25 ft 2 kts 321°
2026-05-06 12:53 35.55057 139.79138 25 ft 0 kts 327°
2026-05-06 12:53 35.55058 139.79138 26 ft 0 kts 327°
2026-05-06 12:56 35.55062 139.79134 25 ft 3 kts 327°
2026-05-06 12:56 35.55103 139.79103 22 ft 10 kts 330°
2026-05-06 12:56 35.55175 139.79060 23 ft 13 kts 352°
2026-05-06 12:57 35.55232 139.79108 23 ft 8 kts 60°
2026-05-06 12:57 35.55241 139.79125 24 ft 2 kts 59°
2026-05-06 12:57 35.55241 139.79126 24 ft 0 kts 59°
2026-05-06 13:00 35.55245 139.79133 23 ft 3 kts 57°
2026-05-06 13:00 35.55260 139.79170 26 ft 7 kts 75°
2026-05-06 13:00 35.55236 139.79233 23 ft 10 kts 144°
2026-05-06 13:00 35.55167 139.79280 24 ft 12 kts 149°
2026-05-06 13:01 35.55082 139.79341 26 ft 16 kts 150°
2026-05-06 13:01 35.54981 139.79414 26 ft 17 kts 149°
2026-05-06 13:01 35.54869 139.79493 23 ft 20 kts 150°
2026-05-06 13:01 35.54742 139.79584 23 ft 22 kts 149°
2026-05-06 13:02 35.54603 139.79680 25 ft 22 kts 151°
2026-05-06 13:02 35.54465 139.79777 24 ft 24 kts 150°
2026-05-06 13:02 35.54327 139.79874 27 ft 21 kts 151°
2026-05-06 13:02 35.54196 139.79972 23 ft 23 kts 147°
2026-05-06 13:03 35.54068 139.80062 23 ft 19 kts 152°
2026-05-06 13:03 35.53944 139.80149 26 ft 22 kts 150°
2026-05-06 13:03 35.53856 139.80195 25 ft 14 kts 181°
2026-05-06 13:03 35.53752 139.80178 24 ft 17 kts 172°
2026-05-06 13:04 35.53629 139.80207 24 ft 19 kts 154°
2026-05-06 13:04 35.53507 139.80295 24 ft 21 kts 149°
2026-05-06 13:04 35.53374 139.80390 25 ft 23 kts 150°
2026-05-06 13:04 35.53230 139.80493 25 ft 25 kts 149°
2026-05-06 13:05 35.53100 139.80584 25 ft 11 kts 151°
2026-05-06 13:05 35.53023 139.80589 26 ft 13 kts 214°
2026-05-06 13:05 35.52947 139.80504 25 ft 17 kts 223°
2026-05-06 13:05 35.52852 139.80397 24 ft 20 kts 222°
2026-05-06 13:06 35.52743 139.80275 24 ft 21 kts 223°
2026-05-06 13:06 35.52681 139.80204 25 ft 10 kts 223°
2026-05-06 13:06 35.52615 139.80140 24 ft 13 kts 202°
2026-05-06 13:06 35.52553 139.80170 24 ft 11 kts 132°
2026-05-06 13:07 35.52522 139.80210 25 ft 0 kts 133°
2026-05-06 13:07 35.52512 139.80224 23 ft 4 kts 132°
2026-05-06 13:07 35.52502 139.80238 23 ft 3 kts 131°
2026-05-06 13:08 35.52491 139.80254 25 ft 2 kts 131°
2026-05-06 13:08 35.52470 139.80283 25 ft 7 kts 131°
2026-05-06 13:08 35.52465 139.80290 25 ft 0 kts 131°
2026-05-06 13:09 35.52453 139.80307 25 ft 5 kts 131°
2026-05-06 13:09 35.52434 139.80333 24 ft 6 kts 131°
2026-05-06 13:09 35.52429 139.80355 23 ft 4 kts 97°
2026-05-06 13:09 35.52447 139.80395 28 ft 5 kts 45°
2026-05-06 13:10 35.52448 139.80395 28 ft 0 kts 45°
2026-05-06 13:10 35.52480 139.80433 26 ft 32 kts 44°
2026-05-06 13:11 35.52829 139.80823 23 ft 102 kts 42°
2026-05-06 13:11 35.53508 139.81582 28 ft 155 kts 43°
2026-05-06 13:11 35.54321 139.82487 517 ft 156 kts 44°
2026-05-06 13:11 35.55084 139.83428 1028 ft 160 kts 57°
2026-05-06 13:12 35.55860 139.84512 1477 ft 175 kts 50°
2026-05-06 13:12 35.56355 139.85863 1954 ft 181 kts 91°
2026-05-06 13:12 35.56134 139.87417 2289 ft 193 kts 112°
2026-05-06 13:12 35.55535 139.88938 2780 ft 198 kts 134°
2026-05-06 13:13 35.54430 139.89829 3496 ft 192 kts 172°
2026-05-06 13:13 35.53111 139.89688 4208 ft 198 kts 207°
2026-05-06 13:13 35.51998 139.88671 5115 ft 202 kts 222°
2026-05-06 13:13 35.50942 139.87525 6155 ft 203 kts 222°
2026-05-06 13:14 35.50582 139.87137 6517 ft 203 kts 222°
2026-05-06 13:14 35.48767 139.85221 7951 ft 218 kts 222°
2026-05-06 13:14 35.47545 139.83956 8557 ft 240 kts 222°
2026-05-06 13:14 35.46213 139.82582 9184 ft 258 kts 222°
2026-05-06 13:15 35.44826 139.81159 10172 ft 262 kts 222°
2026-05-06 13:15 35.43374 139.79678 10734 ft 283 kts 222°
2026-05-06 13:15 35.41796 139.78056 11112 ft 308 kts 222°
2026-05-06 13:15 35.40122 139.76323 11728 ft 320 kts 222°
2026-05-06 13:16 35.38409 139.74545 12611 ft 325 kts 222°
2026-05-06 13:16 35.36672 139.72734 13482 ft 331 kts 224°
2026-05-06 13:16 35.35236 139.70537 14285 ft 333 kts 243°
2026-05-06 13:16 35.34578 139.67837 15197 ft 333 kts 263°
2026-05-06 13:17 35.34608 139.65961 15802 ft 335 kts 276°
2026-05-06 13:17 35.35544 139.62298 16957 ft 341 kts 288°
2026-05-06 13:17 35.36472 139.59604 17773 ft 344 kts 289°
2026-05-06 13:17 35.37407 139.56896 18555 ft 347 kts 289°
2026-05-06 13:18 35.38317 139.54144 19192 ft 351 kts 287°
2026-05-06 13:18 35.39208 139.51344 19674 ft 356 kts 287°
2026-05-06 13:18 35.40091 139.48500 19780 ft 356 kts 286°
2026-05-06 13:18 35.40962 139.45655 19880 ft 357 kts 286°
2026-05-06 13:19 35.41835 139.42793 19981 ft 358 kts 286°
2026-05-06 13:19 35.42707 139.39928 20081 ft 359 kts 286°
2026-05-06 13:19 35.43581 139.37058 20152 ft 360 kts 286°
2026-05-06 13:19 35.44456 139.34179 20188 ft 363 kts 286°
2026-05-06 13:20 35.45344 139.31259 20721 ft 364 kts 285°
2026-05-06 13:20 35.46190 139.28488 21530 ft 362 kts 285°
2026-05-06 13:20 35.47072 139.25592 22150 ft 364 kts 284°
2026-05-06 13:20 35.47356 139.24657 22388 ft 364 kts 284°
2026-05-06 13:21 35.48803 139.19751 23636 ft 362 kts 280°
2026-05-06 13:21 35.49365 139.16779 24282 ft 356 kts 274°
2026-05-06 13:21 35.49619 139.13766 24782 ft 354 kts 267°
2026-05-06 13:21 35.49568 139.10752 25359 ft 353 kts 262°
2026-05-06 13:22 35.49407 139.07766 25831 ft 356 kts 263°
2026-05-06 13:22 35.49258 139.04735 26440 ft 356 kts 263°
2026-05-06 13:22 35.49113 139.01697 26958 ft 358 kts 263°
2026-05-06 13:22 35.48966 138.98643 27457 ft 360 kts 263°
2026-05-06 13:23 35.48815 138.95562 27936 ft 362 kts 263°
2026-05-06 13:23 35.48662 138.92465 28307 ft 367 kts 263°
2026-05-06 13:23 35.48506 138.89335 28885 ft 366 kts 263°
2026-05-06 13:23 35.48350 138.86219 29356 ft 368 kts 263°
2026-05-06 13:24 35.48192 138.83076 29843 ft 370 kts 263°
2026-05-06 13:24 35.48031 138.79902 30262 ft 372 kts 263°
2026-05-06 13:24 35.47870 138.76733 30593 ft 375 kts 262°
2026-05-06 13:24 35.47706 138.73523 30945 ft 377 kts 262°
2026-05-06 13:25 35.47541 138.70303 31303 ft 379 kts 262°
2026-05-06 13:25 35.47375 138.67082 31713 ft 379 kts 262°
2026-05-06 13:25 35.47208 138.63855 32185 ft 378 kts 262°
2026-05-06 13:25 35.47040 138.60645 32657 ft 377 kts 262°
2026-05-06 13:26 35.46872 138.57446 33125 ft 375 kts 262°
2026-05-06 13:26 35.46703 138.54257 33556 ft 374 kts 262°
2026-05-06 13:26 35.46531 138.51070 33967 ft 374 kts 261°
2026-05-06 13:26 35.46362 138.47900 34401 ft 372 kts 261°
2026-05-06 13:27 35.46193 138.44744 34843 ft 369 kts 261°
2026-05-06 13:27 35.46025 138.41615 35250 ft 367 kts 261°
2026-05-06 13:27 35.45855 138.38499 35603 ft 366 kts 261°
2026-05-06 13:27 35.45682 138.35377 35888 ft 366 kts 261°
2026-05-06 13:28 35.45569 138.33329 35945 ft 363 kts 261°
2026-05-06 13:28 35.45342 138.29201 36085 ft 360 kts 261°
2026-05-06 13:28 35.45172 138.26142 36166 ft 359 kts 261°
2026-05-06 13:29 35.44831 138.20050 36174 ft 361 kts 262°
2026-05-06 13:29 35.44485 138.13893 36169 ft 364 kts 261°
2026-05-06 13:30 35.44138 138.07728 36172 ft 361 kts 261°
2026-05-06 13:30 35.43785 138.01574 36176 ft 362 kts 261°
2026-05-06 13:31 35.43428 137.95421 36169 ft 363 kts 261°
2026-05-06 13:31 35.43069 137.89268 36166 ft 360 kts 261°
2026-05-06 13:32 35.42771 137.84176 36164 ft 361 kts 261°
2026-05-06 13:32 35.42408 137.78043 36165 ft 360 kts 261°
2026-05-06 13:33 35.41894 137.70931 36159 ft 360 kts 259°
2026-05-06 13:33 35.41421 137.64810 36160 ft 361 kts 259°
2026-05-06 13:34 35.40945 137.58682 36168 ft 362 kts 258°
2026-05-06 13:34 35.40197 137.53616 36152 ft 359 kts 253°
2026-05-06 13:35 35.38913 137.47750 36150 ft 356 kts 252°
2026-05-06 13:35 35.37635 137.41885 36146 ft 357 kts 252°
2026-05-06 13:36 35.36363 137.36050 36147 ft 357 kts 252°
2026-05-06 13:36 35.35077 137.30174 36144 ft 357 kts 252°
2026-05-06 13:37 35.33790 137.24312 36138 ft 356 kts 252°
2026-05-06 13:37 35.32503 137.18461 36121 ft 356 kts 252°
2026-05-06 13:38 35.31212 137.12610 36121 ft 355 kts 252°
2026-05-06 13:38 35.29920 137.06774 36130 ft 356 kts 252°
2026-05-06 13:39 35.28616 137.00894 36125 ft 359 kts 252°
2026-05-06 13:39 35.27310 136.95021 36126 ft 358 kts 252°
2026-05-06 13:40 35.25995 136.89123 36124 ft 359 kts 251°
2026-05-06 13:40 35.24676 136.83232 36126 ft 359 kts 251°
2026-05-06 13:41 35.24004 136.80241 36126 ft 359 kts 251°
2026-05-06 13:41 35.22707 136.74467 36126 ft 360 kts 251°
2026-05-06 13:42 35.21378 136.68569 36126 ft 360 kts 251°
2026-05-06 13:42 35.20052 136.62698 36127 ft 361 kts 251°
2026-05-06 13:43 35.18716 136.56796 36117 ft 360 kts 251°
2026-05-06 13:43 35.17373 136.50881 36122 ft 362 kts 251°
2026-05-06 13:44 35.16025 136.44952 36130 ft 362 kts 251°
2026-05-06 13:44 35.14669 136.39007 36132 ft 364 kts 251°
2026-05-06 13:45 35.13309 136.33052 36138 ft 364 kts 251°
2026-05-06 13:45 35.11256 136.24105 36135 ft 365 kts 251°
2026-05-06 13:46 35.09894 136.18124 36136 ft 366 kts 251°
2026-05-06 13:46 35.08529 136.12134 36136 ft 366 kts 251°
2026-05-06 13:47 35.07736 136.08661 36131 ft 367 kts 251°
2026-05-06 13:47 35.06361 136.02661 36132 ft 367 kts 251°
2026-05-06 13:48 35.04977 135.96668 36131 ft 368 kts 251°
2026-05-06 13:48 35.03578 135.90648 36130 ft 368 kts 251°
2026-05-06 13:49 35.02178 135.84635 36125 ft 369 kts 251°
2026-05-06 13:49 35.00950 135.78546 36125 ft 371 kts 254°
2026-05-06 13:50 34.99822 135.72410 36126 ft 371 kts 254°
2026-05-06 13:50 34.98731 135.66531 36124 ft 371 kts 254°
2026-05-06 13:51 34.97587 135.60381 36114 ft 372 kts 254°
2026-05-06 13:51 34.96439 135.54227 36109 ft 373 kts 254°
2026-05-06 13:52 34.95285 135.48060 36094 ft 374 kts 254°
2026-05-06 13:52 34.94124 135.41874 36099 ft 375 kts 254°
2026-05-06 13:53 34.92954 135.35662 36109 ft 377 kts 254°
2026-05-06 13:53 34.91746 135.29446 36110 ft 377 kts 254°
2026-05-06 13:54 34.90521 135.23226 36111 ft 378 kts 254°
2026-05-06 13:54 34.89294 135.16993 36116 ft 378 kts 254°
2026-05-06 13:55 34.88063 135.10751 36117 ft 380 kts 254°
2026-05-06 13:55 34.86826 135.04490 36119 ft 381 kts 254°
2026-05-06 13:56 34.85586 134.98220 36120 ft 382 kts 254°
2026-05-06 13:56 34.84404 134.91905 36118 ft 383 kts 255°
2026-05-06 13:57 34.83227 134.85562 36121 ft 385 kts 255°
2026-05-06 13:57 34.82033 134.79197 36120 ft 386 kts 255°
2026-05-06 13:58 34.80828 134.72809 36120 ft 388 kts 255°
2026-05-06 13:58 34.79614 134.66393 36113 ft 390 kts 255°
2026-05-06 13:59 34.78383 134.59951 36118 ft 392 kts 255°
2026-05-06 13:59 34.77129 134.53479 36121 ft 394 kts 255°
2026-05-06 14:00 34.75867 134.46976 36123 ft 396 kts 255°
2026-05-06 14:00 34.74606 134.40434 36130 ft 398 kts 256°
2026-05-06 14:01 34.73354 134.33860 36133 ft 400 kts 256°
2026-05-06 14:01 34.72089 134.27255 36128 ft 403 kts 256°
2026-05-06 14:02 34.70811 134.20610 36132 ft 405 kts 256°
2026-05-06 14:02 34.69527 134.13930 36138 ft 407 kts 256°
2026-05-06 14:03 34.68236 134.07221 36138 ft 409 kts 256°
2026-05-06 14:03 34.66813 134.00521 36130 ft 411 kts 252°
2026-05-06 14:04 34.64818 133.94007 36123 ft 414 kts 250°
2026-05-06 14:04 34.62799 133.87470 36124 ft 413 kts 250°
2026-05-06 14:05 34.60774 133.80911 36126 ft 417 kts 250°
2026-05-06 14:05 34.58728 133.74302 36119 ft 419 kts 250°
2026-05-06 14:06 34.56668 133.67660 36121 ft 421 kts 250°
2026-05-06 14:06 34.54599 133.61005 36124 ft 422 kts 250°
2026-05-06 14:07 34.52437 133.54362 36113 ft 424 kts 249°
2026-05-06 14:07 34.50249 133.47768 36113 ft 425 kts 250°
2026-05-06 14:08 34.48048 133.41107 36112 ft 426 kts 250°
2026-05-06 14:08 34.45876 133.34421 36055 ft 425 kts 251°
2026-05-06 14:09 34.44831 133.31058 35539 ft 427 kts 251°
2026-05-06 14:09 34.43778 133.27651 34485 ft 439 kts 252°
2026-05-06 14:09 34.43046 133.25286 33469 ft 450 kts 252°
2026-05-06 14:09 34.41556 133.20500 31768 ft 466 kts 251°
2026-05-06 14:10 34.40401 133.16813 30715 ft 470 kts 251°
2026-05-06 14:10 34.39226 133.13103 29559 ft 474 kts 251°
2026-05-06 14:10 34.38038 133.09384 28712 ft 471 kts 251°
2026-05-06 14:10 34.36864 133.05713 28000 ft 465 kts 251°
2026-05-06 14:11 34.35706 133.02097 27308 ft 459 kts 251°
2026-05-06 14:11 34.34944 132.99716 26833 ft 455 kts 251°
2026-05-06 14:11 34.33427 132.94973 25928 ft 448 kts 251°
2026-05-06 14:11 34.32311 132.91485 25298 ft 443 kts 251°
2026-05-06 14:12 34.31207 132.88039 24685 ft 437 kts 250°
2026-05-06 14:12 34.30125 132.84630 24081 ft 432 kts 251°
2026-05-06 14:12 34.29067 132.81265 23437 ft 427 kts 251°
2026-05-06 14:12 34.28022 132.77938 22867 ft 419 kts 251°
2026-05-06 14:13 34.26994 132.74672 22289 ft 412 kts 250°
2026-05-06 14:13 34.25981 132.71462 21705 ft 406 kts 250°
2026-05-06 14:13 34.24981 132.68297 21137 ft 400 kts 250°
2026-05-06 14:13 34.23994 132.65181 20570 ft 395 kts 250°
2026-05-06 14:14 34.23015 132.62094 19977 ft 392 kts 250°
2026-05-06 14:14 34.22044 132.59033 19435 ft 387 kts 250°
2026-05-06 14:14 34.21082 132.56008 18875 ft 384 kts 250°
2026-05-06 14:14 34.20130 132.53006 18274 ft 382 kts 250°
2026-05-06 14:15 34.19203 132.50076 17725 ft 377 kts 250°
2026-05-06 14:15 34.18269 132.47122 17109 ft 374 kts 250°
2026-05-06 14:15 34.17344 132.44202 16588 ft 369 kts 250°
2026-05-06 14:15 34.16431 132.41323 16048 ft 365 kts 250°
2026-05-06 14:16 34.15526 132.38473 15520 ft 362 kts 250°
2026-05-06 14:16 34.14627 132.35647 14988 ft 359 kts 250°
2026-05-06 14:16 34.14025 132.33754 14616 ft 357 kts 249°
2026-05-06 14:16 34.13147 132.30997 14098 ft 355 kts 249°
2026-05-06 14:17 34.11968 132.27298 13390 ft 350 kts 249°
2026-05-06 14:17 34.11098 132.24575 12880 ft 346 kts 249°
2026-05-06 14:17 34.10238 132.21883 12376 ft 342 kts 249°
2026-05-06 14:17 34.09386 132.19218 11864 ft 338 kts 249°
2026-05-06 14:18 34.08444 132.16641 11391 ft 335 kts 239°
2026-05-06 14:18 34.06937 132.14529 10891 ft 333 kts 220°
2026-05-06 14:18 34.04949 132.13131 10418 ft 331 kts 204°
2026-05-06 14:18 34.02872 132.12060 10267 ft 318 kts 204°
2026-05-06 14:19 34.00885 132.11036 10154 ft 304 kts 204°
2026-05-06 14:19 33.98978 132.10050 10004 ft 293 kts 204°
2026-05-06 14:19 33.97748 132.09412 9785 ft 289 kts 204°
2026-05-06 14:19 33.95320 132.08151 9388 ft 281 kts 205°
2026-05-06 14:20 33.93534 132.07221 9024 ft 278 kts 205°
2026-05-06 14:20 33.91760 132.06298 8653 ft 276 kts 205°
2026-05-06 14:20 33.90001 132.05384 8290 ft 275 kts 205°
2026-05-06 14:20 33.88840 132.04783 8046 ft 273 kts 205°
2026-05-06 14:21 33.87101 132.03881 7685 ft 271 kts 205°
2026-05-06 14:21 33.85373 132.02987 7325 ft 269 kts 205°
2026-05-06 14:21 33.83656 132.02099 6959 ft 268 kts 205°
2026-05-06 14:21 33.81948 132.01216 6605 ft 266 kts 205°
2026-05-06 14:22 33.80254 132.00339 6235 ft 265 kts 205°
2026-05-06 14:22 33.78570 131.99467 5886 ft 262 kts 204°
2026-05-06 14:22 33.76954 131.98473 5529 ft 260 kts 213°
2026-05-06 14:22 33.75514 131.97185 5182 ft 257 kts 218°
2026-05-06 14:23 33.74105 131.95872 4829 ft 256 kts 218°
2026-05-06 14:23 33.72697 131.94573 4480 ft 254 kts 217°
2026-05-06 14:23 33.71303 131.93291 4135 ft 252 kts 217°
2026-05-06 14:23 33.69914 131.92016 3792 ft 251 kts 216°
2026-05-06 14:24 33.68532 131.90749 3453 ft 249 kts 216°
2026-05-06 14:24 33.67165 131.89496 3193 ft 244 kts 216°
2026-05-06 14:24 33.65785 131.88232 3101 ft 252 kts 216°
2026-05-06 14:24 33.64421 131.86981 3020 ft 240 kts 215°
2026-05-06 14:25 33.63136 131.85803 3019 ft 225 kts 215°
2026-05-06 14:25 33.61962 131.84649 2990 ft 213 kts 223°
2026-05-06 14:25 33.60974 131.83376 2909 ft 202 kts 224°
2026-05-06 14:25 33.60043 131.82173 2827 ft 191 kts 224°
2026-05-06 14:26 33.59158 131.81038 2725 ft 182 kts 223°
2026-05-06 14:26 33.58339 131.79989 2683 ft 162 kts 223°
2026-05-06 14:26 33.57618 131.79066 2518 ft 144 kts 223°
2026-05-06 14:26 33.56949 131.78216 2276 ft 138 kts 222°
2026-05-06 14:27 33.56293 131.77385 1974 ft 137 kts 221°
2026-05-06 14:27 33.55639 131.76556 1650 ft 137 kts 221°
2026-05-06 14:27 33.54998 131.75746 1364 ft 133 kts 222°
2026-05-06 14:27 33.54376 131.74953 1183 ft 129 kts 221°
2026-05-06 14:28 33.53682 131.74281 1084 ft 127 kts 207°
2026-05-06 14:28 33.52861 131.73880 868 ft 130 kts 193°
2026-05-06 14:28 33.51973 131.73764 631 ft 131 kts 181°
2026-05-06 14:28 33.51065 131.73758 418 ft 131 kts 182°
2026-05-06 14:29 33.50153 131.73738 258 ft 131 kts 182°
2026-05-06 14:29 33.49247 131.73720 70 ft 130 kts 182°
2026-05-06 14:29 33.48398 131.73713 25 ft 104 kts 180°
2026-05-06 14:29 33.47976 131.73710 27 ft 16 kts 180°
2026-05-06 14:30 33.47951 131.73704 26 ft 6 kts 203°
2026-05-06 14:30 33.47944 131.73650 28 ft 10 kts 286°
2026-05-06 14:30 33.47939 131.73549 28 ft 15 kts 240°
2026-05-06 14:30 33.47864 131.73510 27 ft 14 kts 179°
2026-05-06 14:31 33.47831 131.73511 27 ft 3 kts 178°
2026-05-06 14:31 33.47789 131.73512 27 ft 9 kts 179°
2026-05-06 14:31 33.47712 131.73508 26 ft 13 kts 181°
2026-05-06 14:31 33.47643 131.73499 27 ft 6 kts 224°
2026-05-06 14:32 33.47639 131.73448 27 ft 8 kts 268°
2026-05-06 14:32 33.47640 131.73373 26 ft 7 kts 270°
2026-05-06 14:32 33.47640 131.73346 27 ft 1 kts 270°
2026-05-06 14:32 33.47640 131.73343 27 ft 0 kts 270°